Hailey, ID

9:39 PM MDT on May 21, 2018 (GMT -0600)
Friedman Memorial

Weather History for KSUN - December, 2012

Change the Weather History Date:

Thursday, December 20, 2012

  Actual Average Record
Temperature  
Mean Temperature 19 °F -  
Max Temperature 26 °F 31 °F 39 °F (2001)
Min Temperature 12 °F 12 °F -4 °F (1998)
Degree Days  
Heating Degree Days 46    
Moisture  
Dew Point 8 °F    
Average Humidity 69    
Maximum Humidity 79    
Minimum Humidity 51    
Precipitation  
Precipitation 0.00 in - - ()
Sea Level Pressure  
Sea Level Pressure 30.21 in    
Wind  
Wind Speed 9 mph (NW)    
Max Wind Speed 14 mph    
Max Gust Speed 18 mph    
Visibility 10 miles    
Events      
Averages and records for this station are not official NWS values.
T = Trace of Precipitation, MM = Missing Value Source: NWS Daily Summary

Daily Weather History Graph

Daily Weather History Graph

Search for Another Location

Airport or City:

Astronomy

Dec. 20, 2012 Rise Set
Actual Time 8:06 AM MST 5:03 PM MST
Civil Twilight 7:33 AM MST 5:36 PM MST
Nautical Twilight 6:57 AM MST 6:12 PM MST
Astronomical Twilight 6:22 AM MST 6:47 PM MST
Moon 12:32 PM MST (12/20) 12:48 AM MST (12/20)
Length of Visible Light 10h 02m
Length of Day
8h 56m
First Quarter, 56% of the Moon is Illuminated
Dec 20
First Quarter
Dec 28
Full
Jan 4
Last Quarter
Jan 11
New
Jan 18
First Quarter

Hourly Weather History & Observations

Time (MST) Temp. Windchill Dew Point Humidity Pressure Visibility Wind Dir Wind Speed Gust Speed Precip Events Conditions
12:15 AM 14.0 °F 0.5 °F 6.8 °F 73% 30.26 in 10.0 mi NW 11.5 mph - N/A   Mostly Cloudy
12:35 AM 14.0 °F 2.0 °F 5.0 °F 67% 30.26 in 10.0 mi NW 9.2 mph - N/A   Mostly Cloudy
12:55 AM 12.2 °F -1.0 °F 5.0 °F 73% 30.26 in 10.0 mi NW 10.4 mph - N/A   Scattered Clouds
1:15 AM 12.2 °F 0.7 °F 5.0 °F 73% 30.26 in 10.0 mi NW 8.1 mph - N/A   Clear
1:35 AM 12.2 °F 0.7 °F 5.0 °F 73% 30.27 in 10.0 mi WNW 8.1 mph - N/A   Clear
1:55 AM 12.2 °F 0.7 °F 5.0 °F 73% 30.26 in 10.0 mi WNW 8.1 mph - N/A   Clear
2:15 AM 12.2 °F 0.7 °F 5.0 °F 73% 30.26 in 10.0 mi NW 8.1 mph - N/A   Clear
2:35 AM 12.2 °F 2.9 °F 5.0 °F 73% 30.27 in 10.0 mi NW 5.8 mph - N/A   Clear
2:55 AM 14.0 °F 2.9 °F 6.8 °F 73% 30.28 in 10.0 mi NNW 8.1 mph - N/A   Mostly Cloudy
3:15 AM 14.0 °F 0.5 °F 6.8 °F 73% 30.27 in 10.0 mi NW 11.5 mph 17.3 mph N/A   Overcast
3:35 AM 14.0 °F 2.0 °F 6.8 °F 73% 30.27 in 10.0 mi NW 9.2 mph - N/A   Overcast
3:55 AM 14.0 °F 2.9 °F 6.8 °F 73% 30.26 in 10.0 mi NW 8.1 mph - N/A   Overcast
4:15 AM 14.0 °F 1.2 °F 8.6 °F 79% 30.26 in 10.0 mi NNW 10.4 mph - N/A   Overcast
4:35 AM 14.0 °F 2.0 °F 8.6 °F 79% 30.25 in 10.0 mi NW 9.2 mph - N/A   Overcast
4:55 AM 14.0 °F 2.9 °F 8.6 °F 79% 30.25 in 10.0 mi North 8.1 mph - N/A   Mostly Cloudy
5:15 AM 15.8 °F 7.2 °F 8.6 °F 73% 30.26 in 10.0 mi NW 5.8 mph - N/A   Mostly Cloudy
5:35 AM 15.8 °F 4.2 °F 8.6 °F 73% 30.24 in 10.0 mi NW 9.2 mph - N/A   Mostly Cloudy
5:55 AM 14.0 °F 2.9 °F 8.6 °F 79% 30.25 in 10.0 mi NNW 8.1 mph - N/A   Overcast
6:47 AM 14.0 °F 2.9 °F 6.8 °F 73% 30.26 in 10.0 mi WNW 8.1 mph - N/A   Clear
7:47 AM 12.2 °F 2.9 °F 6.8 °F 79% 30.26 in 10.0 mi NW 5.8 mph - N/A   Overcast
8:47 AM 14.0 °F 3.9 °F 6.8 °F 73% 30.26 in 10.0 mi NNW 6.9 mph - N/A   Overcast
9:52 AM 17.6 °F 8.2 °F 8.6 °F 68% 30.26 in 10.0 mi NNW 6.9 mph - N/A   Overcast
10:50 AM 19.4 °F 11.5 °F 8.6 °F 63% 30.25 in 10.0 mi NNW 5.8 mph - N/A   Overcast
11:47 AM 21.2 °F 10.9 °F 10.4 °F 63% 30.24 in 10.0 mi NW 9.2 mph - N/A   Overcast
12:48 PM 24.8 °F 16.1 °F 10.4 °F 54% 30.20 in 10.0 mi West 8.1 mph - N/A   Overcast
1:47 PM 24.8 °F 17.9 °F 10.4 °F 54% 30.17 in 10.0 mi NW 5.8 mph - N/A   Overcast
2:47 PM 26.6 °F 21.2 °F 10.4 °F 51% 30.15 in 10.0 mi NW 4.6 mph - N/A   Overcast
3:47 PM 24.8 °F - 10.4 °F 54% 30.15 in 10.0 mi Calm Calm - N/A   Overcast
4:47 PM 23.0 °F 13.9 °F 12.2 °F 63% 30.14 in 10.0 mi NW 8.1 mph - N/A   Overcast
5:47 PM 21.2 °F 13.6 °F 10.4 °F 63% 30.14 in 10.0 mi NW 5.8 mph - N/A   Mostly Cloudy
6:47 PM 19.4 °F 11.5 °F 10.4 °F 68% 30.13 in 10.0 mi WNW 5.8 mph - N/A   Scattered Clouds
7:47 PM 19.4 °F 8.6 °F 10.4 °F 68% 30.14 in 10.0 mi West 9.2 mph - N/A   Scattered Clouds
8:47 PM 17.6 °F 6.4 °F 10.4 °F 73% 30.14 in 10.0 mi WNW 9.2 mph - N/A   Scattered Clouds
9:47 PM 17.6 °F 6.4 °F 10.4 °F 73% 30.14 in 10.0 mi WNW 9.2 mph - N/A   Scattered Clouds
10:15 PM 19.4 °F 8.6 °F 10.4 °F 68% 30.13 in 10.0 mi NW 9.2 mph - N/A   Clear
10:35 PM 19.4 °F 8.6 °F 10.4 °F 68% 30.13 in 10.0 mi NW 9.2 mph - N/A   Clear
10:47 PM 17.6 °F 5.0 °F 8.6 °F 68% 30.12 in 10.0 mi WNW 11.5 mph 18.4 mph N/A   Scattered Clouds
10:55 PM 19.4 °F 6.0 °F 10.4 °F 68% 30.13 in 10.0 mi NW 13.8 mph 18.4 mph N/A   Clear
11:15 PM 19.4 °F 6.0 °F 10.4 °F 68% 30.12 in 10.0 mi NW 13.8 mph 18.4 mph N/A   Clear
11:35 PM 19.4 °F 6.6 °F 10.4 °F 68% 30.12 in 10.0 mi NW 12.7 mph - N/A   Clear
11:55 PM 19.4 °F 7.9 °F 10.4 °F 68% 30.12 in 10.0 mi NW 10.4 mph - N/A   Clear